Rocky Mount, NC

3:56 PM EDT on August 28, 2016 (GMT -0400)
Rocky Mount-Wilson Regional

Weather History for KRWI - September, 2013

Change the Weather History Date:

Friday, September 13, 2013

  Actual Average Record
Temperature  
Mean Temperature 77 °F -  
Max Temperature 87 °F 84 °F 98 °F (1983)
Min Temperature 66 °F 61 °F 33 °F (1996)
Cooling Degree Days 12    
Growing Degree Days 27 (Base 50)    
Moisture  
Dew Point 64 °F    
Average Humidity 67    
Maximum Humidity 93    
Minimum Humidity 43    
Precipitation  
Precipitation 0.00 in - - ()
Sea Level Pressure  
Sea Level Pressure 29.79 in    
Wind  
Wind Speed 6 mph (NW)    
Max Wind Speed 12 mph    
Max Gust Speed -    
Visibility 9 miles    
Events      
Averages and records for this station are not official NWS values.
T = Trace of Precipitation, MM = Missing Value Source: NWS Daily Summary

Daily Weather History Graph

Daily Weather History Graph

Search for Another Location

Airport or City:

Trip Planner

Search our weather history database for the weather conditions in past years. The results will help you decide how hot, cold, wet, or windy it might be!

Date:

Astronomy

Sep. 13, 2013 Rise Set
Actual Time 6:52 AM EDT 7:21 PM EDT
Civil Twilight 6:27 AM EDT 7:47 PM EDT
Nautical Twilight 5:56 AM EDT 8:17 PM EDT
Astronomical Twilight 5:26 AM EDT 8:47 PM EDT
Moon 3:01 PM EDT (9/13) 12:28 AM EDT (9/13)
Length of Visible Light 13h 19m
Length of Day
12h 28m
First Quarter, 61% of the Moon is Illuminated
Sep 13
First Quarter
Sep 19
Full
Sep 26
Last Quarter
Oct 4
New
Oct 11
First Quarter

Hourly Weather History & Observations

Time (EDT) Temp. Heat Index Dew Point Humidity Pressure Visibility Wind Dir Wind Speed Gust Speed Precip Events Conditions
12:53 AM 73.0 °F - 69.1 °F 87% 29.79 in 10.0 mi SSW 3.5 mph - N/A   Clear
1:53 AM 73.0 °F - 69.1 °F 87% 29.78 in 8.0 mi WSW 5.8 mph - N/A   Clear
2:53 AM 71.1 °F - 69.1 °F 93% 29.77 in 7.0 mi SW 5.8 mph - N/A   Clear
3:53 AM 73.0 °F - 69.1 °F 87% 29.76 in 9.0 mi WSW 5.8 mph - N/A   Clear
4:53 AM 72.0 °F - 69.1 °F 91% 29.75 in 8.0 mi West 5.8 mph - N/A   Clear
5:53 AM 72.0 °F - 69.1 °F 91% 29.75 in 8.0 mi WNW 3.5 mph - N/A   Clear
6:53 AM 72.0 °F - 68.0 °F 87% 29.77 in 9.0 mi West 3.5 mph - N/A   Partly Cloudy
7:53 AM 72.0 °F - 66.9 °F 84% 29.78 in 8.0 mi WNW 3.5 mph - N/A   Scattered Clouds
8:53 AM 73.9 °F - 66.9 °F 79% 29.79 in 9.0 mi NW 4.6 mph - N/A   Mostly Cloudy
9:53 AM 77.0 °F - 66.0 °F 69% 29.80 in 10.0 mi NW 6.9 mph - N/A   Mostly Cloudy
10:53 AM 81.0 °F 82.7 °F 64.9 °F 58% 29.79 in 10.0 mi NW 10.4 mph - N/A   Clear
11:53 AM 82.9 °F 83.7 °F 62.1 °F 49% 29.79 in 10.0 mi NNW 11.5 mph - N/A   Clear
12:53 PM 84.0 °F 84.5 °F 62.1 °F 47% 29.78 in 10.0 mi WNW 11.5 mph - N/A   Clear
1:53 PM 86.0 °F 86.3 °F 62.1 °F 44% 29.76 in 10.0 mi NNW 6.9 mph - N/A   Clear
2:53 PM 84.9 °F 84.8 °F 60.1 °F 43% 29.75 in 10.0 mi North 8.1 mph - N/A   Mostly Cloudy
3:53 PM 84.0 °F 84.0 °F 60.1 °F 44% 29.75 in 10.0 mi NW 8.1 mph - N/A   Mostly Cloudy
4:53 PM 84.0 °F 83.8 °F 59.0 °F 43% 29.75 in 10.0 mi NNW 4.6 mph - N/A   Mostly Cloudy
5:53 PM 84.0 °F 84.0 °F 60.1 °F 44% 29.76 in 10.0 mi NNW 6.9 mph - N/A   Partly Cloudy
6:53 PM 79.0 °F - 59.0 °F 50% 29.77 in 10.0 mi North 4.6 mph - N/A   Mostly Cloudy
7:53 PM 73.0 °F - 61.0 °F 66% 29.80 in 10.0 mi North 5.8 mph - N/A   Mostly Cloudy
8:53 PM 75.0 °F - 59.0 °F 57% 29.85 in 10.0 mi NNE 9.2 mph - N/A   Mostly Cloudy
9:53 PM 69.1 °F - 59.0 °F 70% 29.87 in 10.0 mi NNE 5.8 mph - N/A   Mostly Cloudy
10:53 PM 68.0 °F - 59.0 °F 73% 29.88 in 10.0 mi NNE 3.5 mph - N/A   Scattered Clouds
11:53 PM 66.9 °F - 59.0 °F 76% 29.88 in 10.0 mi Calm Calm - N/A   Scattered Clouds